Torna al catalogo

CZ-6A DEB

AttivoPO
NORAD 61389·DEBRIS·🇨🇳 China

Lanciato Aug 6, 2024 da Taiyuan Satellite Launch Center

Loading…

Prossimi Passaggi (prossime 24 ore)

TLE

AggiornatoSource: Space-Track

Epoca: Sep 14, 2026, 00:48 UTC

1 61389U 24140XE  26257.03383604  .00001458  00000-0  64405-3 0  9997
2 61389  89.0324 267.8661 0051036 263.0675  96.4709 14.22122135104929

Traccia CZ-6A DEB in tempo reale con AllMySat

Download on the App Store